Località Giorno Ora Temp. Umid. Relat. Dew Point Press. Atm. Velocità Vento Direz. Vento Precip. Temp.
Min
Temp.
Max
Abano (PD) 21/09/17 19.15 21.2 °C 51 % 10.7 °C 1015.8 hPa 0.0 Km/h --- 0.0 mm  11.6 °C 24.5 °C
Acquaviva delle Fonti (BA) 21/09/17 19.13 17.3 °C 59 % 9.2 °C 1018.3 hPa 5.9 Km/h NE 0.0 mm  12.7 °C 20.6 °C
Ala (TN) 21/09/17 19.13 15.5 °C 63 % 8.5 °C 1016.8 hPa 9.6 Km/h SSE 0.0 mm  9.2 °C 22.7 °C
Alleghe (BL) 21/09/17 19.13 9.9 °C 64 % 3.4 °C 1005.1 hPa 4.3 Km/h NE 0.0 mm  3.4 °C 17.5 °C
Alleghe Lago (BL) 21/09/17 04.49 3.1 °C 84 % 0.7 °C 1020.3 hPa 9.1 Km/h ENE 0.0 mm  3.0 °C 5.5 °C
Ancona (AN) 21/09/17 19.15 16.5 °C 66 % 10.1 °C 1019.0 hPa 0.0 Km/h --- 0.0 mm  8.3 °C 21.8 °C
Arenzano (GE) 21/09/17 19.13 18.0 °C 72 % 12.9 °C 1019.1 hPa 3.2 Km/h S 0.0 mm  15.0 °C 19.8 °C
Arquà Polesine (RO) 21/09/17 19.13 19.5 °C 56 % 10.5 °C 1018.5 hPa 0.0 Km/h E 0.0 mm  10.2 °C 23.6 °C
Arzignano loc. Castello (VI) 21/09/17 19.00 19.7 °C 52 % 9.5 °C 1016.2 hPa 0.0 Km/h SSW 0.0 mm  10.6 °C 21.9 °C
Arzignano Pugnello (VI) 21/09/17 19.13 15.1 °C 68 % 9.4 °C 1015.2 hPa 5.0 Km/h W 0.0 mm  10.8 °C 21.8 °C
Arzignano San Bortolo (VI) 21/09/17 19.22 18.9 °C 49 % 8.0 °C 1014.4 hPa 4.8 Km/h SW 0.0 mm  13.3 °C 21.7 °C
Arzignano Tezze (VI) 21/09/17 19.23 17.4 °C 63 % 10.3 °C 1016.5 hPa 0.0 Km/h WNW 0.0 mm  7.9 °C 23.3 °C
Asiago Rifugio Val Formica (VI) 21/09/17 19.23 4.9 °C 87 % 2.9 °C 1018.8 hPa 0.0 Km/h N 0.0 mm  0.6 °C 11.0 °C
Avenza-Carrara (MS) 21/09/17 19.10 20.2 °C 61 % 12.4 °C 1020.7 hPa 0.0 Km/h N 0.0 mm  10.9 °C 23.7 °C
Avio (TN) 21/09/17 19.14 17.6 °C 57 % 9.0 °C 1016.6 hPa 0.0 Km/h SW 0.0 mm  10.4 °C 24.8 °C
Badia Calavena loc. San Valentino (VR) 21/09/17 19.13 13.6 °C 53 % 4.2 °C 1015.3 hPa 3.2 Km/h ENE 0.0 mm  10.4 °C 16.8 °C
Barbara (AN) 21/09/17 19.13 17.9 °C 61 % 10.3 °C 1020.6 hPa 2.2 Km/h SE 0.0 mm  11.0 °C 21.6 °C
Barcellona P.G. Centro (ME) 21/09/17 19.13 21.4 °C 62 % 13.8 °C 1019.1 hPa 0.0 Km/h N 8.6 mm  17.3 °C 23.8 °C
Barcellona Pozzo di Gotto (ME) 21/09/17 19.13 21.2 °C 63 % 13.9 °C 1018.6 hPa 0.0 Km/h NNE 5.3 mm  17.8 °C 22.9 °C
Bassano del Grappa (VI) 21/09/17 08.20 13.3 °C 52 % 3.7 °C 1004.7 hPa 6.4 Km/h ENE 0.0 mm  11.4 °C 13.7 °C
Bellaria Igea Marina (RN) 21/09/17 19.13 19.3 °C 65 % 12.5 °C 1017.3 hPa 3.2 Km/h SE 0.0 mm  9.7 °C 20.9 °C
Bellaria Igea Marina2 (RN) 21/09/17 19.13 19.4 °C 67 % 13.2 °C 1017.0 hPa 4.8 Km/h ESE 0.0 mm  9.8 °C 20.8 °C
Bellaria Igea Marina3 (RN) 21/09/17 19.13 18.8 °C 66 % 12.3 °C 1016.1 hPa 2.5 Km/h ESE 0.0 mm  8.4 °C 23.0 °C
Belluno Castion (BL) 21/09/17 19.00 17.2 °C 63 % 10.1 °C 1016.8 hPa 0.0 Km/h --- 0.0 mm  4.1 °C 21.6 °C
Besenello (TN) 21/09/17 19.13 17.7 °C 52 % 7.7 °C 1017.9 hPa 5.0 Km/h NNE 0.0 mm  8.6 °C 22.6 °C
Besozzo (VA) 21/09/17 19.17 17.9 °C 67 % 11.7 °C 1016.8 hPa 0.0 Km/h --- 0.0 mm  4.8 °C 22.1 °C
Bisignano (CS) 21/09/17 19.13 18.9 °C 45 % 6.7 °C 1020.4 hPa 1.2 Km/h S 0.0 mm  11.7 °C 25.1 °C
Bitti (NU) 21/09/17 19.11 17.5 °C 66 % 11.1 °C 1020.4 hPa 3.2 Km/h SSE 0.0 mm  10.7 °C 22.9 °C
Bonorva (SS) 21/09/17 19.15 19.9 °C 49 % 8.9 °C 1018.7 hPa 3.2 Km/h NW 0.0 mm  10.8 °C 25.3 °C
Borgo Valsugana (TN) 21/09/17 19.23 15.0 °C 48 % 4.1 °C 1015.8 hPa 5.8 Km/h SSE 0.0 mm  5.1 °C 21.2 °C
Borgofranco d'Ivrea (TO) 21/09/17 19.13 17.9 °C 46 % 6.1 °C 1017.3 hPa 0.0 Km/h E 0.0 mm  11.4 °C 28.4 °C
Borore (NU) 21/09/17 19.14 19.2 °C 60 % 11.3 °C 1017.8 hPa 11.7 Km/h WNW 0.0 mm  8.8 °C 23.7 °C
Brebbia (VA) 21/09/17 11.20 18.1 °C 54 % 8.6 °C 1019.5 hPa 3.2 Km/h W 0.0 mm  7.5 °C 18.1 °C
Bresega (PD) 21/09/17 19.13 21.3 °C 53 % 11.1 °C 1016.9 hPa 0.0 Km/h SW 0.0 mm  10.1 °C 24.0 °C
Brolo c/da Parrazzà (ME) 21/09/17 19.15 20.5 °C 53 % 10.6 °C 1019.6 hPa 5.0 Km/h SSW 2.2 mm  16.2 °C 22.3 °C
Brugine2 (PD) 21/09/17 19.10 19.1 °C 63 % 11.8 °C 1017.2 hPa 0.0 Km/h SSW 0.0 mm  9.5 °C 24.7 °C
Buccheri (SR) 21/09/17 18.42 15.8 °C 62 % 8.5 °C 1017.0 hPa 0.0 Km/h W 0.0 mm  10.5 °C 20.4 °C
Budoia (PN) 21/09/17 19.01 16.7 °C 70 % 11.2 °C 1017.2 hPa 4.8 Km/h WNW 0.0 mm  10.5 °C 21.6 °C
Ca' Gallo (PU) 21/09/17 19.24 15.8 °C 79 % 12.2 °C 1014.4 hPa 4.7 Km/h ESE 0.0 mm  8.7 °C 23.3 °C
Calcinato (BS) 21/09/17 19.13 20.4 °C 47 % 8.7 °C 1019.2 hPa 0.0 Km/h NW 0.0 mm  13.2 °C 22.6 °C
Calliano (TN) 21/09/17 19.13 15.8 °C 59 % 7.8 °C 1016.5 hPa 6.4 Km/h S 0.0 mm  7.1 °C 22.6 °C
Caltabellotta (AG) 21/09/17 19.10 16.1 °C 64 % 9.3 °C 1018.1 hPa 0.0 Km/h SSE 0.0 mm  12.8 °C 19.6 °C
Cammarata (AG) 21/09/17 19.14 14.8 °C 60 % 7.1 °C 1016.4 hPa 12.2 Km/h NW 0.0 mm  12.1 °C 19.8 °C
Campoformido (UD) 21/09/17 19.13 18.0 °C 70 % 12.4 °C 1017.8 hPa 0.0 Km/h S 0.0 mm  7.4 °C 21.2 °C
Camposampiero (PD) 21/09/17 19.18 20.1 °C 39 % 5.7 °C 1018.0 hPa 5.6 Km/h ESE 0.0 mm  20.1 °C 22.0 °C
Capodimonte (VT) 21/09/17 19.10 17.1 °C 75 % 12.6 °C 1020.0 hPa 3.2 Km/h WSW 0.0 mm  12.2 °C 21.3 °C
Caprarola Centro Storico (VT) 21/09/17 19.13 15.6 °C 77 % 11.6 °C 1020.0 hPa 1.5 Km/h ESE 0.0 mm  9.4 °C 21.0 °C
Caprino (VR) 21/09/17 19.14 19.7 °C 50 % 9.0 °C 1015.4 hPa 0.0 Km/h SW 0.0 mm  11.6 °C 22.7 °C
Carceri (PD) 21/09/17 19.19 20.2 °C 55 % 10.6 °C 1016.5 hPa 0.0 Km/h WSW 0.0 mm  10.1 °C 24.2 °C
Carmignano loc. Seano (PO) 21/09/17 19.14 20.4 °C 46 % 8.4 °C 1018.4 hPa 3.3 Km/h N 0.0 mm  9.3 °C 23.5 °C
Carpi (MO) 21/09/17 19.13 21.4 °C 45 % 9.0 °C 1016.5 hPa 0.0 Km/h ENE 0.0 mm  10.2 °C 24.4 °C
Cartigliano (VI) 21/09/17 19.13 20.3 °C 54 % 10.7 °C 1016.1 hPa 0.0 Km/h SSW 0.0 mm  8.8 °C 23.5 °C
Cartura (PD) 21/09/17 19.13 19.3 °C 54 % 9.7 °C 1016.8 hPa 2.2 Km/h SW 0.0 mm  10.8 °C 23.9 °C
Casotto (VI) 21/09/17 19.16 14.1 °C 74 % 9.4 °C 1016.1 hPa 0.0 Km/h E 0.0 mm  7.4 °C 20.2 °C
Cassano Magnago (VA) 21/09/17 19.23 18.4 °C 49 % 7.6 °C 1016.5 hPa 0.0 Km/h W 0.0 mm  9.4 °C 24.3 °C
Castel d'Azzano (VR) 21/09/17 19.05 19.4 °C 53 % 9.6 °C 964.8 hPa 0.0 Km/h --- 0.0 mm  9.7 °C 23.3 °C
Castelfranco Veneto (TV) 21/09/17 19.15 20.4 °C 53 % 10.5 °C 1017.2 hPa 0.0 Km/h --- 0.0 mm  9.3 °C 23.5 °C
Castelfranco Veneto2 (TV) 21/09/17 19.08 22.4 °C 45 % 9.9 °C 1017.2 hPa 1.6 Km/h SSW 0.0 mm  -573.3 °C 24.0 °C
Castelgomberto (VI) 21/09/17 10.41 19.3 °C 44 % 6.7 °C 1017.5 hPa 0.9 Km/h SSW 0.0 mm  10.3 °C 19.3 °C
Castelnuovo V.C. (PI) 21/09/17 19.11 13.3 °C 73 % 8.6 °C 1019.1 hPa 0.0 Km/h SW 0.0 mm  7.9 °C 18.6 °C
Castiglione del Lago (PG) 21/09/17 19.10 19.4 °C 50 % 8.7 °C 1020.7 hPa 1.6 Km/h WSW 0.0 mm  5.8 °C 22.4 °C
Castiglione della Pescaia Vaticino (GR) 15/09/17 12.53 24.6 °C 29 % 5.4 °C 1011.5 hPa 0.7 Km/h ESE 0.0 mm  0.0 °C 0.0 °C
Cavaria con Premezzo (VA) 21/09/17 19.13 20.7 °C 45 % 8.3 °C 1016.5 hPa 0.0 Km/h NW 0.0 mm  9.1 °C 22.9 °C
Cavazzale (VI) 21/09/17 19.15 18.9 °C 51 % 8.6 °C 1016.9 hPa 0.0 Km/h --- 0.0 mm  8.8 °C 24.6 °C
Cefalù (PA) 21/09/17 19.13 20.8 °C 57 % 12.0 °C 1016.1 hPa 1.1 Km/h N 0.0 mm  20.1 °C 23.3 °C
Cerea (VR) 21/09/17 07.30 9.9 °C 87 % 7.9 °C 1017.9 hPa 1.6 Km/h NNE 0.0 mm  9.9 °C 14.4 °C
Cerea2 (VR) 21/09/17 19.00 21.3 °C 36 % 5.5 °C 1015.1 hPa 4.0 Km/h WSW 0.0 mm  11.3 °C 23.7 °C
Cima Grappa (TV) 21/09/17 19.14 5.3 °C 88 % 3.5 °C 1020.8 hPa 14.1 Km/h SSW 0.0 mm  3.5 °C 8.7 °C
Cismon del Grappa loc. Corlo (VI) 21/09/17 19.14 15.3 °C 60 % 7.6 °C 1018.4 hPa 9.5 Km/h SSE 0.0 mm  5.7 °C 20.7 °C
Cittadella (PD) 21/09/17 19.12 21.0 °C 47 % 9.3 °C 1016.1 hPa 0.0 Km/h SW 0.0 mm  11.8 °C 24.6 °C
Civita Castellana (VT) 21/09/17 19.13 18.9 °C 58 % 10.5 °C 1019.5 hPa 7.8 Km/h W 0.0 mm  6.9 °C 23.3 °C
Cogollo del Cengio (VI) 21/09/17 19.12 15.8 °C 50 % 5.4 °C 1016.5 hPa 2.9 Km/h NW 0.0 mm  9.6 °C 20.7 °C
Colle del Piccolo San Bernardo La Thuile (AO) 21/09/17 19.16 6.1 °C 60 % -1.1 °C 1019.9 hPa 9.7 Km/h SSW 0.0 mm  0.6 °C 10.0 °C
Colle S. Lucia Posalz (BL) 21/09/17 19.14 8.9 °C 53 % -0.2 °C 1026.2 hPa 0.0 Km/h S 0.0 mm  -10.0 °C 16.1 °C
Cologna Veneta Sant'Andrea (VR) 21/09/17 19.15 18.3 °C 63 % 11.2 °C 1016.9 hPa 0.0 Km/h --- 0.0 mm  10.3 °C 24.1 °C
Colognola ai Colli (VR) 21/09/17 19.15 18.6 °C 64 % 11.6 °C 1018.1 hPa 0.0 Km/h SW 0.0 mm  9.1 °C 23.2 °C
Contrada Dosso Gervasio (VR) 21/09/17 18.45 14.6 °C 53 % 4.4 °C 1016.9 hPa 3.0 Km/h SW 0.0 mm  10.0 °C 16.1 °C
Corrubio di S. Anna d'Alfaedo (VR) 21/09/17 19.20 14.2 °C 55 % 5.2 °C 1018.9 hPa 1.6 Km/h SW 0.0 mm  10.3 °C 16.1 °C
Cosseria Lidora (SV) 21/09/17 19.15 15.8 °C 78 % 11.9 °C 1018.3 hPa 6.4 Km/h SE 0.0 mm  5.2 °C 19.0 °C
Costa di Vittorio Veneto (TV) 21/09/17 19.20 16.7 °C 69 % 11.0 °C 1016.1 hPa 3.2 Km/h WNW 0.0 mm  10.1 °C 22.4 °C
Crespano del Grappa (TV) 21/09/17 19.22 16.3 °C 56 % 7.5 °C 1017.2 hPa 1.9 Km/h N 0.0 mm  9.5 °C 20.6 °C
Dorno (PV) 21/09/17 19.14 21.7 °C 46 % 9.6 °C 1017.4 hPa 1.7 Km/h WSW 0.0 mm  8.5 °C 24.6 °C
Dossobuono (VR) 21/09/17 19.14 21.0 °C 46 % 8.9 °C 1018.6 hPa 1.6 Km/h WSW 0.0 mm  10.5 °C 23.1 °C
Esine (BS) 21/09/17 19.13 17.2 °C 63 % 10.0 °C 1016.3 hPa 1.4 Km/h NE 0.0 mm  9.2 °C 22.1 °C
Falzè di Piave (TV) 21/09/17 19.14 15.8 °C 77 % 11.8 °C 1018.1 hPa 0.0 Km/h --- 0.2 mm  6.6 °C 23.3 °C
Farra di Soligo (TV) 21/09/17 19.09 16.4 °C 61 % 8.9 °C 1016.3 hPa 0.0 Km/h SSW 0.0 mm  8.6 °C 23.2 °C
Favaro Veneto (VE) 21/09/17 19.10 15.8 °C 88 % 13.8 °C 1012.5 hPa 11.3 Km/h NE 0.0 mm  0.0 °C 0.0 °C
Feltre Celarda (BL) 21/09/17 19.14 13.0 °C 70 % 7.7 °C 1015.1 hPa 0.0 Km/h W 0.0 mm  2.9 °C 21.0 °C
Ferrara di M.B. (VR) 21/09/17 19.10 8.1 °C 74 % 3.7 °C 1016.0 hPa 0.0 Km/h N 0.0 mm  5.9 °C 14.4 °C
Fiavè loc. Ballino (TN) 21/09/17 19.14 10.5 °C 70 % 5.3 °C 1016.2 hPa 2.4 Km/h NW 0.0 mm  6.0 °C 19.1 °C
Filo di Argenta (FE) 21/09/17 19.15 19.3 °C 58 % 10.8 °C 1018.1 hPa 0.0 Km/h W 0.0 mm  9.7 °C 22.1 °C
Fogliano Redipuglia (GO) 21/09/17 19.24 17.0 °C 71 % 11.7 °C 1017.8 hPa 4.5 Km/h SSE 0.0 mm  6.8 °C 23.2 °C
Foligno (PG) 21/09/17 19.10 19.8 °C 53 % 9.9 °C 1018.3 hPa 3.2 Km/h ENE 0.0 mm  8.0 °C 22.7 °C
Fontanafredda (PN) 21/09/17 19.14 16.6 °C 78 % 12.8 °C 1016.9 hPa 0.0 Km/h SSW 0.0 mm  5.7 °C 21.9 °C
Gallio (VI) 21/09/17 19.20 10.4 °C 77 % 6.6 °C 1018.5 hPa 1.6 Km/h N 0.0 mm  3.2 °C 14.8 °C
Gardolo (TN) 21/09/17 19.14 18.3 °C 45 % 6.2 °C 1017.5 hPa 18.7 Km/h NNE 0.0 mm  6.4 °C 22.5 °C
Genova Albaro (GE) 21/09/17 19.14 18.5 °C 55 % 9.3 °C 1029.0 hPa 4.5 Km/h S 0.0 mm  13.1 °C 21.2 °C
Genova Erzelli (GE) 21/09/17 15.47 20.1 °C 67 % 13.7 °C 1018.4 hPa 4.8 Km/h W 0.0 mm  14.9 °C 21.1 °C
Gradisca d'Isonzo (GO) 21/09/17 19.14 16.5 °C 75 % 12.1 °C 1018.8 hPa 0.0 Km/h S 0.0 mm  6.4 °C 22.8 °C
Iglesias (CI) 21/09/17 19.24 20.9 °C 54 % 11.2 °C 1019.9 hPa 7.9 Km/h NNE 0.0 mm  12.5 °C 25.7 °C
Isola d'Elba Marina di Campo (LI) 21/09/17 19.00 18.8 °C 72 % 13.7 °C 1001.6 hPa 0.0 Km/h SE 0.3 mm  10.4 °C 22.6 °C
Lavis (TN) 21/09/17 19.10 18.5 °C 42 % 5.0 °C 1016.9 hPa 9.6 Km/h S 0.0 mm  6.1 °C 22.7 °C
Laxolo (BG) 21/09/17 19.18 15.3 °C 63 % 8.3 °C 1015.0 hPa 0.0 Km/h N 0.0 mm  5.4 °C 19.3 °C
Legnago (VR) 21/09/17 19.15 20.5 °C 53 % 10.6 °C 1017.0 hPa 0.0 Km/h --- 0.0 mm  11.5 °C 23.8 °C
Lesmo (MB) 21/09/17 17.10 20.8 °C 45 % 8.5 °C 1017.7 hPa 1.6 Km/h WNW 0.0 mm  5.3 °C 21.9 °C
Loano (SV) 21/09/17 19.15 19.6 °C 69 % 13.8 °C 1018.3 hPa 6.0 Km/h S 0.0 mm  15.8 °C 21.1 °C
Lovere (BG) 21/09/17 19.03 18.9 °C 30 % 1.0 °C 1017.0 hPa 9.4 Km/h SW 0.0 mm  10.2 °C 22.5 °C
Lugagnano (VR) 21/09/17 19.14 20.7 °C 49 % 9.4 °C 1015.8 hPa 0.0 Km/h W 0.0 mm  10.3 °C 23.2 °C
Lusiana Sciessere (VI) 21/09/17 19.06 14.8 °C 59 % 6.9 °C 1019.5 hPa 0.0 Km/h W 0.0 mm  10.0 °C 17.3 °C
Magnano (BI) 21/09/17 19.14 14.3 °C 66 % 8.0 °C 1018.6 hPa 0.0 Km/h SW 0.0 mm  6.8 °C 20.9 °C
Malnate San Salvatore (VA) 21/09/17 19.15 16.0 °C 75 % 11.6 °C 1018.4 hPa 0.0 Km/h --- 0.0 mm  6.1 °C 21.4 °C
Marano Vicentino2 (VI) 21/09/17 19.10 18.9 °C 51 % 8.5 °C 1016.4 hPa 0.0 Km/h W 0.0 mm  7.8 °C 22.6 °C
Margone (TN) 21/09/17 19.10 10.3 °C 70 % 5.0 °C 1020.7 hPa 2.6 Km/h NNW 0.0 mm  4.8 °C 16.4 °C
Marostica Valle San Floriano (VI) 21/09/17 19.13 17.1 °C 65 % 10.6 °C 1018.2 hPa 0.0 Km/h WSW 0.0 mm  9.4 °C 22.6 °C
Marta (VT) 21/09/17 04.35 12.8 °C 78 % 9.1 °C 1017.1 hPa 0.0 Km/h W 0.0 mm  11.1 °C 13.2 °C
Martignano (TN) 21/09/17 19.15 17.6 °C 46 % 5.8 °C 1015.8 hPa 0.0 Km/h W 0.0 mm  7.1 °C 21.9 °C
Masiera di Bagnacavallo (RA) 21/09/17 18.59 20.2 °C 56 % 11.1 °C 1015.9 hPa 0.0 Km/h SW 0.0 mm  6.7 °C 22.9 °C
Massarosa (LU) 21/09/17 19.14 18.6 °C 69 % 12.8 °C 1007.0 hPa 0.0 Km/h W 0.0 mm  11.3 °C 22.5 °C
Massone di Arco (TN) 21/09/17 19.14 17.0 °C 62 % 9.7 °C 1016.7 hPa 0.0 Km/h NNE 0.0 mm  9.6 °C 22.1 °C
Mazzurega (VR) 21/09/17 19.07 15.0 °C 63 % 8.0 °C 1017.5 hPa 3.2 Km/h W 0.0 mm  12.0 °C 21.8 °C
Merlara (PD) 21/09/17 19.15 17.6 °C 64 % 10.7 °C 1016.4 hPa 0.0 Km/h --- 0.0 mm  10.2 °C 22.6 °C
Mezzana Bigli (PV) 21/09/17 19.10 20.8 °C 44 % 8.1 °C 1016.1 hPa 0.0 Km/h S 0.0 mm  7.5 °C 25.6 °C
Migliarino (FE) 21/09/17 19.10 20.9 °C 42 % 7.5 °C 1016.7 hPa 0.0 Km/h SE 0.0 mm  11.0 °C 25.0 °C
Miglionico (MT) 21/09/17 19.20 16.2 °C 47 % 4.8 °C 1017.0 hPa 0.0 Km/h N 0.0 mm  11.3 °C 19.2 °C
Miola di Piné (TN) 21/09/17 19.10 13.4 °C 54 % 4.3 °C 1018.8 hPa 1.1 Km/h SSW 0.0 mm  5.2 °C 16.9 °C
Mirabella Imbaccari (CT) 21/09/17 19.18 18.6 °C 64 % 11.7 °C 1018.8 hPa 3.7 Km/h ENE 0.0 mm  12.4 °C 24.4 °C
Monasterolo Torinese (TO) 21/09/17 19.15 16.3 °C 43 % 3.7 °C 1013.9 hPa 0.0 Km/h --- 0.0 mm  10.3 °C 21.3 °C
Mongrando San Michele (BI) 21/09/17 19.10 15.8 °C 69 % 10.2 °C 1017.1 hPa 0.0 Km/h --- 0.0 mm  7.8 °C 20.9 °C
Montagna in Valtellina (SO) 21/09/17 19.09 17.3 °C 59 % 9.2 °C 1018.2 hPa 0.0 Km/h E 0.0 mm  6.1 °C 22.4 °C
Montebello Vicentino loc. Selva (VI) 21/09/17 19.10 18.5 °C 33 % 1.9 °C 1016.9 hPa 1.1 Km/h WSW 0.0 mm  13.4 °C 22.1 °C
Montecchio Maggiore La Valle (VI) 21/09/17 19.02 -573.3 °C 0 % -73.3 °C -3386.0 hPa -1000.0 Km/h N 0.0 mm  -573.3 °C -573.3 °C
Montecchio Maggiore Sant'Urbano (VI) 21/09/17 19.03 19.2 °C 39 % 4.8 °C 1018.8 hPa 4.2 Km/h SE 0.0 mm  11.3 °C 23.6 °C
Monteforte d'Alpone (VR) 21/09/17 19.15 20.7 °C 46 % 8.6 °C 1015.4 hPa 4.8 Km/h WSW 0.0 mm  10.5 °C 23.2 °C
Montelabbate (PU) 21/09/17 19.06 18.5 °C 63 % 11.3 °C 1017.5 hPa 1.3 Km/h N 0.0 mm  9.8 °C 22.8 °C
Montespertoli (FI) 20/09/17 17.30 15.9 °C 68 % 10.0 °C 1019.9 hPa 1.4 Km/h S 0.0 mm  10.8 °C 22.3 °C
Montopoli in val d'Arno Loc. Capanne (PI) 21/09/17 19.10 19.3 °C 66 % 12.8 °C 1018.7 hPa 9.4 Km/h WSW 0.0 mm  7.9 °C 0.0 °C
Montorso Vicentino (VI) 21/09/17 19.10 17.3 °C 53 % 7.7 °C 1016.9 hPa 0.0 Km/h SSE 0.0 mm  11.6 °C 20.7 °C
Morbegno (SO) 21/09/17 19.10 17.6 °C 52 % 7.6 °C 1016.7 hPa 0.0 Km/h SSW 0.0 mm  8.3 °C 21.3 °C
Muzzano (BI) 21/09/17 19.10 15.0 °C 60 % 7.3 °C 1016.1 hPa 3.2 Km/h WNW 0.0 mm  11.7 °C 20.9 °C
Nichelino (TO) 21/09/17 19.15 23.4 °C 25 % 2.2 °C 1016.1 hPa 0.0 Km/h --- 0.0 mm  8.3 °C 24.1 °C
Novara (NO) 21/09/17 19.10 19.8 °C 48 % 8.5 °C 1016.6 hPa 0.0 Km/h --- 0.0 mm  7.6 °C 25.9 °C
Onara extraurbana (PD) 21/09/17 19.08 21.8 °C 45 % 9.3 °C 1013.2 hPa 0.0 Km/h SE 0.0 mm  8.8 °C 23.9 °C
Oppeano (VR) 17/09/17 09.45 17.9 °C 70 % 12.4 °C 1008.4 hPa 0.0 Km/h W 0.0 mm  11.8 °C 17.9 °C
Oristano (OR) 21/09/17 19.10 21.3 °C 58 % 12.7 °C 1017.4 hPa 2.4 Km/h N 0.0 mm  12.2 °C 24.4 °C
Orosei (NU) 21/09/17 19.16 21.6 °C 59 % 13.2 °C 1018.4 hPa 9.7 Km/h ENE 0.0 mm  15.1 °C 23.6 °C
Ortonovo (SP) 21/09/17 19.10 17.8 °C 71 % 12.5 °C 1015.3 hPa 4.7 Km/h SW 0.0 mm  14.2 °C 20.9 °C
Orvieto (TR) 21/09/17 19.01 17.9 °C 65 % 11.2 °C 1016.3 hPa 7.0 Km/h SSW 0.0 mm  5.9 °C 24.2 °C
Ostana (CN) 21/09/17 15.54 12.4 °C 54 % 3.4 °C 1017.1 hPa 4.8 Km/h ENE 0.0 mm  3.4 °C 12.8 °C
Ostiano (CR) 21/09/17 19.06 22.7 °C 41 % 8.8 °C 1016.5 hPa 0.0 Km/h SW 0.0 mm  10.7 °C 24.2 °C
Ovaro loc. Liariis (UD) 21/09/17 19.10 11.1 °C 80 % 7.8 °C 1019.6 hPa 0.0 Km/h --- 0.0 mm  3.5 °C 19.6 °C
Pace del Mela (ME) 21/09/17 19.11 19.2 °C 64 % 12.2 °C 1020.1 hPa 4.9 Km/h W 3.6 mm  16.5 °C 23.1 °C
Padergnone (TN) 21/09/17 18.45 17.7 °C 60 % 9.8 °C 1017.7 hPa 0.0 Km/h S 0.0 mm  11.2 °C 23.2 °C
Parella (TO) 21/09/17 19.04 18.2 °C 45 % 6.1 °C 1015.1 hPa 1.6 Km/h NW 0.0 mm  10.3 °C 21.7 °C
Pastrengo Cornè (VR) 21/09/17 19.16 19.8 °C 49 % 8.8 °C 1015.7 hPa 0.0 Km/h WSW 0.0 mm  12.5 °C 22.1 °C
Pecetto Torinese (TO) 21/09/17 19.07 19.8 °C 41 % 6.2 °C 1016.8 hPa 0.0 Km/h NNE 0.0 mm  11.3 °C 23.7 °C
Pedara (CT) 21/09/17 18.10 16.3 °C 66 % 9.9 °C 1017.5 hPa 0.0 Km/h ENE 0.0 mm  10.5 °C 18.7 °C
Pedemonte (VR) 21/09/17 19.15 19.7 °C 53 % 9.9 °C 1016.8 hPa 0.0 Km/h N 0.0 mm  9.3 °C 23.0 °C
Pian di Castagné (VR) 21/09/17 18.54 18.6 °C 47 % 7.0 °C 1016.5 hPa 4.8 Km/h NW 0.0 mm  14.4 °C 19.9 °C
Pila Valsesia (VC) 21/09/17 19.15 13.7 °C 69 % 8.1 °C 1016.2 hPa 1.6 Km/h W 0.0 mm  3.8 °C 20.1 °C
Piovà Massaia (AT) 21/09/17 19.10 20.6 °C 36 % 5.0 °C 1015.5 hPa 0.0 Km/h ESE 0.0 mm  11.7 °C 22.5 °C
Piraino contr. Fiumara (ME) 21/09/17 19.15 20.1 °C 64 % 13.0 °C 1019.4 hPa 2.0 Km/h S 1.8 mm  16.1 °C 23.9 °C
Pisa zona I Passi (PI) 21/09/17 19.10 19.1 °C 63 % 11.9 °C 1019.3 hPa 0.0 Km/h NW 0.0 mm  10.7 °C 21.5 °C
Pojana Maggiore Cagnano (VI) 19/09/17 02.01 13.0 °C 96 % 12.4 °C 1010.2 hPa 0.0 Km/h NW 1.2 mm  13.0 °C 13.5 °C
Pomezia (RM) 21/09/17 19.10 19.9 °C 66 % 13.4 °C 1018.3 hPa 3.2 Km/h S 0.0 mm  13.1 °C 23.1 °C
Ponte San Nicolò (PD) 21/09/17 19.06 21.9 °C 46 % 9.8 °C 1016.5 hPa 0.0 Km/h S 0.0 mm  11.3 °C 23.9 °C
Ponte San Pellegrino (MO) 21/09/17 19.10 21.4 °C 36 % 5.7 °C 1007.6 hPa 2.5 Km/h E 0.0 mm  10.6 °C 23.3 °C
Pordenone (PN) 21/09/17 19.05 20.0 °C 60 % 12.0 °C 1017.5 hPa 0.0 Km/h --- 0.0 mm  8.3 °C 22.8 °C
Pozzolo Formigaro (AL) 21/09/17 19.15 18.7 °C 53 % 8.9 °C 1018.1 hPa 6.5 Km/h S 0.0 mm  7.8 °C 24.7 °C
Pray (BI) 21/09/17 19.10 15.0 °C 70 % 9.6 °C 1017.6 hPa 2.0 Km/h WNW 0.0 mm  4.6 °C 20.8 °C
Reggello (FI) 21/09/17 19.11 17.6 °C 54 % 8.2 °C 1021.8 hPa 3.2 Km/h E 0.0 mm  9.3 °C 20.3 °C
Riccione (RN) 21/09/17 18.45 19.6 °C 62 % 12.1 °C 1017.9 hPa 9.7 Km/h ESE 0.0 mm  9.6 °C 20.4 °C
Rifugio Bocca di Selva (VR) 15/09/17 11.31 9.1 °C 85 % 6.7 °C 1012.7 hPa 16.1 Km/h ESE 0.0 mm  6.8 °C 10.2 °C
Rifugio Fiori del Baldo (VR) 21/09/17 12.37 16.3 °C 95 % 15.8 °C 1026.0 hPa 18.4 Km/h W 0.0 mm  0.0 °C 0.0 °C
Rifugio Primaneve (VR) 21/09/17 19.07 6.3 °C 70 % 1.3 °C 1020.5 hPa 8.0 Km/h WSW 0.0 mm  2.9 °C 9.2 °C
Rimini (RN) 21/09/17 19.10 19.6 °C 62 % 12.1 °C 1018.2 hPa 0.0 Km/h E 0.0 mm  10.3 °C 21.6 °C
Rimini Zona Palas (RN) 21/09/17 19.02 19.6 °C 59 % 11.1 °C 1018.2 hPa 4.8 Km/h SE 0.0 mm  10.6 °C 20.9 °C
Rivalba (TO) 21/09/17 19.05 18.6 °C 46 % 6.7 °C 1016.9 hPa 0.0 Km/h N 0.0 mm  6.4 °C 21.2 °C
Rivalta sul Mincio (MN) 21/09/17 19.14 19.3 °C 58 % 10.8 °C 1017.2 hPa 0.0 Km/h W 0.0 mm  9.5 °C 24.1 °C
Roma Prato della Signora (RM) 21/09/17 19.05 20.5 °C 62 % 12.9 °C 1017.8 hPa 0.0 Km/h WNW 84.1 mm  14.1 °C 24.3 °C
Romano d'Ezzelino Fellette (VI) 19/09/17 19.17 17.0 °C 67 % 10.8 °C 1017.8 hPa 5.9 Km/h ESE 0.0 mm  11.0 °C 17.0 °C
Ronciglione Centro (VT) 21/09/17 19.10 16.3 °C 48 % 5.3 °C 1019.0 hPa 5.4 Km/h W 0.0 mm  10.9 °C 20.8 °C
Rosolina (RO) 21/09/17 19.05 19.8 °C 64 % 12.8 °C 1017.5 hPa 4.8 Km/h S 0.0 mm  10.7 °C 23.6 °C
S. Giovanni Ilarione2 (VR) 21/09/17 19.15 15.5 °C 66 % 9.2 °C 1016.7 hPa 3.2 Km/h WNW 0.0 mm  10.0 °C 21.9 °C
S. Giovanni Lupatoto (VR) 21/09/17 19.10 20.8 °C 50 % 10.0 °C 1017.0 hPa 0.0 Km/h --- 0.0 mm  11.1 °C 24.5 °C
S. Giovanni Rotondo (FG) 21/09/17 19.15 14.0 °C 66 % 7.7 °C 1019.1 hPa 8.0 Km/h NW 1.0 mm  11.6 °C 17.0 °C
S. Lorenzo di Vittorio Veneto (TV) 21/09/17 19.10 16.8 °C 60 % 9.0 °C 1018.1 hPa 3.2 Km/h NW 0.0 mm  10.5 °C 20.1 °C
S. Lorenzo Nuovo (VT) 21/09/17 19.10 15.9 °C 70 % 10.5 °C 1018.1 hPa 4.0 Km/h SSE 0.0 mm  15.9 °C 19.6 °C
S. Maria di Zevio Loc. 3 Ponti (VR) 21/09/17 19.10 21.4 °C 50 % 10.6 °C 1018.6 hPa 3.0 Km/h WSW 0.0 mm  10.8 °C 24.6 °C
S. Maria Maddalena (RO) 21/09/17 19.05 19.4 °C 57 % 10.6 °C 1016.4 hPa 0.0 Km/h WNW 0.0 mm  10.9 °C 22.7 °C
S. Martino Lupari (PD) 20/09/17 15.30 23.6 °C 42 % 9.9 °C 1014.5 hPa 1.6 Km/h SSW 0.0 mm  10.6 °C 23.7 °C
S. Rocco di Villabalzana (VI) 21/09/17 19.13 18.7 °C 49 % 7.8 °C 1016.9 hPa 1.7 Km/h W 0.0 mm  11.1 °C 23.2 °C
S. Zeno di Mont. Prada (VR) 21/09/17 19.10 11.2 °C 72 % 6.3 °C 1017.3 hPa 0.0 Km/h --- 0.0 mm  5.4 °C 16.0 °C
Sacile (PN) 21/09/17 19.20 17.9 °C 71 % 12.6 °C 1016.5 hPa 0.0 Km/h SSW 0.0 mm  7.3 °C 21.9 °C
Salcedo (VI) 21/09/17 19.10 17.3 °C 52 % 7.3 °C 1016.9 hPa 0.0 Km/h S 0.0 mm  10.8 °C 20.8 °C
San Benedetto del Tronto (AP) 21/09/17 18.30 20.1 °C 49 % 9.0 °C 1018.0 hPa 0.0 Km/h W 0.0 mm  12.9 °C 20.7 °C
San Cataldo (CL) 21/09/17 19.10 18.1 °C 50 % 7.5 °C 1017.2 hPa 8.3 Km/h N 0.0 mm  13.6 °C 20.6 °C
San Giovanni la Punta Trappeto (CT) 21/09/17 19.15 19.8 °C 65 % 13.1 °C 1019.4 hPa 3.2 Km/h ESE 0.0 mm  14.8 °C 24.1 °C
San Nazario (VI) 21/09/17 19.21 15.4 °C 67 % 9.3 °C 1016.8 hPa 0.0 Km/h N 0.0 mm  10.2 °C 24.4 °C
San Pietro in Cariano (VR) 21/09/17 19.09 18.5 °C 52 % 8.5 °C 1019.0 hPa 3.2 Km/h NW 0.0 mm  12.0 °C 24.0 °C
San Salvo3 (CH) 21/09/17 19.10 18.4 °C 66 % 11.9 °C 1016.5 hPa 0.0 Km/h SSE 0.8 mm  12.6 °C 21.4 °C
San Vito (CA) 21/09/17 19.11 21.9 °C 49 % 10.7 °C 1012.9 hPa 0.0 Km/h N 0.0 mm  15.5 °C 29.1 °C
San Zeno di Mont. Loc. Castello (VR) 21/09/17 19.10 14.5 °C 55 % 5.6 °C 1017.0 hPa 6.0 Km/h W 0.0 mm  10.9 °C 17.3 °C
Santarcangelo di Romagna (RN) 21/09/17 19.11 18.5 °C 64 % 11.6 °C 1018.4 hPa 0.0 Km/h E 0.0 mm  9.9 °C 22.4 °C
Savelli (KR) 17/09/17 02.34 24.6 °C 33 % 7.3 °C 1012.6 hPa 24.8 Km/h W 0.0 mm  23.9 °C 24.7 °C
Schio (VI) 21/09/17 19.00 17.9 °C 61 % 10.3 °C 1018.3 hPa 3.2 Km/h NW 0.0 mm  10.7 °C 23.8 °C
Schio Monte Magré (VI) 21/09/17 19.11 13.8 °C 75 % 9.4 °C 0.0 hPa 6.4 Km/h W 0.0 mm  9.2 °C 20.9 °C
Seremange Erzange (Moselle) 21/09/17 19.10 15.9 °C 72 % 10.9 °C 1019.4 hPa 0.0 Km/h SSE 0.0 mm  6.4 °C 19.7 °C
Sinnai (CA) 21/09/17 19.05 20.8 °C 59 % 12.5 °C 1018.9 hPa 4.8 Km/h SE 0.0 mm  16.2 °C 26.9 °C
Soave Borgo Bassano (VR) 21/09/17 19.15 20.4 °C 54 % 10.8 °C 1017.2 hPa 0.0 Km/h W 0.0 mm  10.4 °C 24.6 °C
Sona Loc. La Colombara (VR) 21/09/17 19.00 20.7 °C 56 % 11.1 °C 1013.8 hPa 2.0 Km/h SW 0.0 mm  6.5 °C 22.6 °C
Soriso (NO) 21/09/17 19.10 16.9 °C 66 % 10.5 °C 1017.6 hPa 0.0 Km/h SE 0.0 mm  10.9 °C 20.5 °C
Staranzano (GO) 21/09/17 00.50 11.1 °C 85 % 8.7 °C 1018.8 hPa 0.0 Km/h NE 0.0 mm  11.1 °C 11.7 °C
Stiore - Monteveglio (BO) 21/09/17 19.10 19.4 °C 53 % 9.6 °C 1014.3 hPa 0.0 Km/h N 0.0 mm  9.0 °C 22.4 °C
Taio Mollaro (TN) 21/09/17 19.10 14.2 °C 68 % 8.4 °C 1018.9 hPa 0.0 Km/h NE 0.0 mm  2.8 °C 21.8 °C
Taranto (TA) 21/09/17 19.15 20.2 °C 51 % 9.8 °C 1014.6 hPa 10.6 Km/h NE 0.0 mm  15.5 °C 23.2 °C
Todi (PG) 21/09/17 19.15 17.6 °C 66 % 11.2 °C 1018.1 hPa 8.0 Km/h W 0.0 mm  8.4 °C 21.4 °C
Tombolo (PD) 21/09/17 19.11 19.4 °C 54 % 9.9 °C 1017.4 hPa 0.0 Km/h SSW 0.0 mm  9.6 °C 24.0 °C
Torino Regio Parco (TO) 21/09/17 19.11 22.1 °C 32 % 4.6 °C 1018.5 hPa 2.2 Km/h ESE 0.0 mm  9.8 °C 23.8 °C
Torre Annunziata (NA) 21/09/17 19.15 20.3 °C 57 % 11.5 °C 1019.4 hPa 8.7 Km/h WNW 0.0 mm  14.4 °C 21.4 °C
Torri (FI) 21/09/17 19.00 18.2 °C 53 % 8.5 °C 1018.5 hPa 3.2 Km/h WSW 0.0 mm  7.1 °C 22.0 °C
Torrita di Siena (SI) 21/09/17 19.10 18.5 °C 60 % 10.6 °C 1019.5 hPa 4.8 Km/h SW 0.0 mm  5.8 °C 23.4 °C
Trambileno (TN) 21/09/17 19.16 11.2 °C 78 % 7.8 °C 1017.5 hPa 0.0 Km/h N 0.0 mm  4.6 °C 19.4 °C
Tregnago Loc. Centro (VR) 21/09/17 19.15 16.4 °C 49 % 5.7 °C 1011.4 hPa 6.4 Km/h NW 0.0 mm  12.7 °C 19.7 °C
Trento (TN) 21/09/17 19.11 17.9 °C 51 % 7.7 °C 1016.0 hPa 3.2 Km/h NW 0.0 mm  9.8 °C 23.1 °C
Treviso (TV) 21/09/17 19.10 18.6 °C 66 % 12.1 °C 1017.6 hPa 1.0 Km/h SE 0.0 mm  9.2 °C 23.2 °C
Tuscania (VT) 21/09/17 18.30 18.9 °C 65 % 12.2 °C 1019.4 hPa 1.7 Km/h W 0.0 mm  9.9 °C 22.1 °C
Val Lastaro (VI) 21/09/17 18.35 10.2 °C 76 % 6.1 °C 1019.5 hPa 0.0 Km/h SSW 0.0 mm  0.7 °C 13.9 °C
Valdobbiadene San Pietro di Barbozza (TV) 21/09/17 19.10 16.3 °C 49 % 5.6 °C 1016.6 hPa 9.7 Km/h N 0.0 mm  12.0 °C 19.7 °C
Valentano (VT) 21/09/17 19.10 15.4 °C 76 % 11.1 °C 1017.9 hPa 13.0 Km/h SSW 0.0 mm  12.7 °C 20.0 °C
Valenza (AL) 21/09/17 19.22 20.1 °C 43 % 7.1 °C 1016.1 hPa 8.0 Km/h SSW 0.0 mm  9.3 °C 24.1 °C
Valli del Pasubio loc. Gisbenti (VI) 21/09/17 19.10 12.5 °C 40 % -0.8 °C 973.0 hPa 2.8 Km/h NNW 0.0 mm  6.9 °C 20.4 °C
Varese Ligure (SP) 21/09/17 19.10 14.9 °C 10 % -16.4 °C 1021.5 hPa 3.0 Km/h NE 0.0 mm  4.8 °C 20.9 °C
Vasto (CH) 21/09/17 19.10 19.0 °C 10 % -13.3 °C 1018.9 hPa 0.4 Km/h SW 0.9 mm  12.2 °C 21.7 °C
Vattaro fraz. Pian dei Pradi (TN) 21/09/17 19.09 13.0 °C 65 % 6.6 °C 1019.0 hPa 12.1 Km/h SSW 0.0 mm  4.1 °C 17.5 °C
Verona Bgo Venezia (iz3sly) (VR) 21/09/17 19.19 17.3 °C 61 % 9.7 °C 1015.8 hPa 0.0 Km/h NNW 0.0 mm  8.9 °C 23.4 °C
Verona L'Arena (VR) 21/09/17 19.11 21.8 °C 41 % 7.8 °C 1017.1 hPa 5.0 Km/h WSW 0.0 mm  12.4 °C 23.9 °C
Vestenanova (VR) 21/09/17 19.10 14.8 °C 51 % 4.8 °C 1023.6 hPa 0.0 Km/h N 0.0 mm  9.5 °C 19.9 °C
Vicenza Campedello (VI) 21/09/17 19.16 17.9 °C 64 % 11.1 °C 1018.0 hPa 0.0 Km/h SW 0.0 mm  6.7 °C 23.6 °C
Vicenza Moracchino (VI) 21/09/17 19.11 20.4 °C 45 % 8.1 °C 1015.9 hPa 8.0 Km/h S 0.0 mm  8.6 °C 23.9 °C
Vicenza Pecori Giraldi (VI) 21/09/17 19.20 20.7 °C 50 % 9.9 °C 1018.8 hPa 0.0 Km/h N 0.0 mm  -22.2 °C 25.4 °C
Vicenza S. Lazzaro (VI) 21/09/17 19.10 21.7 °C 41 % 7.8 °C 1015.7 hPa 2.0 Km/h SSW 0.0 mm  10.3 °C 24.0 °C
Vicenza San Gaetano (VI) 21/09/17 19.10 20.2 °C 49 % 9.1 °C 1016.7 hPa 0.0 Km/h NW 0.2 mm  9.3 °C 24.3 °C
Vidor (TV) 21/09/17 19.16 17.4 °C 56 % 8.5 °C 1015.8 hPa 0.0 Km/h NNW 0.0 mm  6.5 °C 22.8 °C
Vieste (FG) 21/09/17 19.11 18.8 °C 50 % 8.2 °C 1019.0 hPa 9.8 Km/h WSW 0.0 mm  16.9 °C 21.2 °C
Vigasio (VR) 21/09/17 19.10 21.0 °C 47 % 9.3 °C 1015.4 hPa 0.0 Km/h --- 0.0 mm  10.2 °C 24.4 °C
Viozene Toria (CN) 21/09/17 19.10 10.3 °C 80 % 7.0 °C 1009.8 hPa 0.0 Km/h SE 0.0 mm  5.7 °C 16.1 °C
Viterbo Santa Barbara (VT) 21/09/17 19.19 16.4 °C 70 % 10.9 °C 1018.8 hPa 9.3 Km/h SW 0.0 mm  8.9 °C 21.6 °C
Vitorchiano Pallone (VT) 21/09/17 18.30 18.5 °C 66 % 12.0 °C 1018.1 hPa 11.3 Km/h SW 0.0 mm  11.1 °C 21.7 °C
Vittorio Veneto (TV) 21/09/17 19.20 17.1 °C 68 % 11.1 °C 1017.2 hPa 0.0 Km/h SSE 0.0 mm  11.8 °C 22.7 °C
Vittorio Veneto Parco Fenderl (TV) 21/09/17 19.20 13.6 °C 80 % 10.2 °C 1018.2 hPa 0.0 Km/h NW 0.0 mm  11.5 °C 22.8 °C
Volpago del Montello (TV) 21/09/17 19.00 14.8 °C 80 % 11.4 °C 1017.2 hPa 0.0 Km/h --- 0.0 mm  8.9 °C 21.2 °C
 
(*) = Precipitazioni nelle ultime 24h.
Dati non aggiornati nell'ultima ora.
   
In collaborazione con: